Location: Unspecified
(0.0000°N, 0.0000°E)
Time: 13:58:55
(UTC+02:00)

PROBA 2 - Pass Details

Date: 03 June 2022
Orbit: 704 x 725 km, 98.2° (Epoch: 30 June)

Event Time Altitude Azimuth Distance (km) Brightness Sun altitude
Rises 20:11:26 0° 1° (N) 3,078 ? -3.0°
Reaches altitude 10° 20:13:44 10° 356° (N) 2,163 ? -3.6°
Maximum altitude 20:18:17 47° 282° (WNW) 927 ? -4.6°
Drops below altitude 10° 20:22:52 10° 208° (SSW) 2,178 ? -5.7°
Sets 20:25:12 0° 202° (SSW) 3,101 ? -6.2°
